Change the Weather History Date:

Sunday, April 14, 2013

  Actual Average Record
Temperature  
Mean Temperature 67 °F -  
Max Temperature 77 °F 67 °F 84 °F (2002)
Min Temperature 57 °F 44 °F 32 °F (1972)
Cooling Degree Days 2    
Growing Degree Days 17 (Base 50)    
Moisture  
Dew Point 24 °F    
Average Humidity 20    
Maximum Humidity 36    
Minimum Humidity 5    
Precipitation  
Precipitation 0.00 in - - ()
Sea Level Pressure  
Sea Level Pressure 29.47 in    
Wind  
Wind Speed 8 mph (West)    
Max Wind Speed 21 mph    
Max Gust Speed 32 mph    
Visibility 10 miles    
Events      
Averages and records for this station are not official NWS values.
T = Trace of Precipitation, MM = Missing Value Source: NWS Daily Summary

Daily Weather History Graph

Daily Weather History Graph

Search for Another Location

Airport or City:

Trip Planner

Search our weather history database for the weather conditions in past years. The results will help you decide how hot, cold, wet, or windy it might be!

Date:

Astronomy

Apr. 14, 2013 Rise Set
Actual Time 5:52 AM MST 6:59 PM MST
Civil Twilight 5:25 AM MST 7:26 PM MST
Nautical Twilight 4:54 AM MST 7:58 PM MST
Astronomical Twilight 4:21 AM MST 8:31 PM MST
Moon 8:36 AM MST (4/14) 11:11 PM MST (4/14)
Length of Visible Light 14h 00m
Length of Day
13h 07m
Waxing Crescent, 18% of the Moon is Illuminated
Apr 14
Waxing Crescent
Apr 18
First Quarter
Apr 25
Full
May 2
Last Quarter
May 9
New

Hourly Weather History & Observations

Time (MST) Temp. Dew Point Humidity Pressure Visibility Wind Dir Wind Speed Gust Speed Precip Events Conditions
12:53 AM 66.9 °F 24.1 °F 20% 29.44 in 10.0 mi SW 9.2 mph 16.1 mph N/A   Clear
1:53 AM 64.9 °F 25.0 °F 22% 29.43 in 10.0 mi SW 6.9 mph - N/A   Clear
2:53 AM 64.0 °F 25.0 °F 23% 29.43 in 10.0 mi Calm Calm - N/A   Clear
3:53 AM 57.9 °F 27.0 °F 31% 29.46 in 10.0 mi SE 5.8 mph - N/A   Clear
4:53 AM 55.9 °F 27.0 °F 33% 29.49 in 10.0 mi Calm Calm - N/A   Clear
5:53 AM 57.0 °F 28.9 °F 34% 29.51 in 10.0 mi NNW 10.4 mph - N/A   Clear
6:53 AM 57.0 °F 30.0 °F 36% 29.55 in 10.0 mi NNW 6.9 mph - N/A   Clear
7:53 AM 57.9 °F 28.0 °F 32% 29.58 in 10.0 mi NW 8.1 mph - N/A   Clear
8:53 AM 60.1 °F 27.0 °F 28% 29.59 in 10.0 mi NNW 10.4 mph - N/A   Clear
9:53 AM 63.0 °F 26.1 °F 25% 29.59 in 10.0 mi NNW 8.1 mph - N/A   Clear
10:53 AM 66.0 °F 26.1 °F 22% 29.57 in 10.0 mi Variable 6.9 mph - N/A   Clear
11:53 AM 66.9 °F 26.1 °F 21% 29.55 in 10.0 mi Variable 3.5 mph - N/A   Clear
12:53 PM 73.4 °F 17.6 °F 12% 29.67 in 10.0 mi West 10.4 mph 19.6 mph N/A   Clear
1:53 PM 73.9 °F 18.0 °F 12% 29.47 in 10.0 mi WNW 20.7 mph 32.2 mph N/A   Clear
2:53 PM 73.9 °F 17.1 °F 12% 29.45 in 10.0 mi WNW 13.8 mph 25.3 mph N/A   Clear
3:53 PM 75.9 °F 18.0 °F 11% 29.42 in 10.0 mi WNW 12.7 mph 25.3 mph N/A   Clear
4:53 PM 77.0 °F 19.0 °F 11% 29.39 in 10.0 mi WNW 16.1 mph 24.2 mph N/A   Clear
5:53 PM 75.0 °F 21.0 °F 13% 29.38 in 10.0 mi West 11.5 mph 20.7 mph N/A   Partly Cloudy
6:53 PM 73.0 °F 23.0 °F 15% 29.38 in 10.0 mi West 6.9 mph 17.3 mph N/A   Clear
7:53 PM 70.0 °F 24.1 °F 18% 29.38 in 10.0 mi West 6.9 mph - N/A   Clear
8:53 PM 69.1 °F 27.0 °F 21% 29.39 in 10.0 mi West 8.1 mph 17.3 mph N/A   Clear
9:53 PM 69.1 °F 25.0 °F 19% 29.40 in 10.0 mi WSW 11.5 mph 24.2 mph N/A   Clear
10:53 PM 66.0 °F 26.1 °F 22% 29.41 in 10.0 mi South 6.9 mph - N/A   Clear
11:53 PM 64.9 °F 28.0 °F 25% 29.40 in 10.0 mi South 11.5 mph - N/A   Clear